Voltar ao catálogo

SL-8 R/B

AtivoPO
NORAD 15360·ROCKET BODY·🇷🇺 Russia

Lançado Oct 11, 1984 de Plesetsk Cosmodrome

Loading…

Próximas Passagens (próximas 24 horas)

TLE

AtualizadoSource: Space-Track

Época: Sep 14, 2026, 20:33 UTC

1 15360U 84109B   26257.85635978  .00000129  00000-0  11498-3 0  9998
2 15360  82.9368  58.7658 0040479 327.7755  32.0929 13.77070793105984

Acompanhe SL-8 R/B em tempo real com AllMySat

Download on the App Store